Location: Dampvalley
(47.9094°N, 6.1967°E)
Time: 08:53:38
(UTC+00:00)

Cosmos 1992 Rocket - Visible Passes

Search period start: 16 June 2021 00:00
Search period end: 26 June 2021 00:00
Orbit: 758 x 766 km, 74.0° (Epoch: 15 June)

Date Brightness Start Highest point End Pass type
(mag) Time Alt. Az. Time Alt. Az. Time Alt. Az.
16 Jun 6.4 00:53:51 10° W 00:56:53 15° NW 00:59:56 10° N visible
16 Jun 4.0 22:32:38 29° S 22:35:12 64° ESE 22:40:24 10° NNE visible
17 Jun 6.0 00:13:31 10° WSW 00:17:38 23° NW 00:21:44 10° N visible
17 Jun 4.6 21:54:03 24° SSE 21:56:32 38° ESE 22:01:20 10° NE visible
17 Jun 5.3 23:34:09 12° WSW 23:38:29 34° WNW 23:43:17 10° N visible
18 Jun 5.3 21:15:24 16° SE 21:17:57 23° E 21:21:59 10° NE visible
18 Jun 4.6 22:55:30 17° SW 22:59:29 55° WNW 23:04:39 10° NNE visible
19 Jun 6.6 00:40:53 10° WNW 00:42:42 12° NW 00:44:30 10° NNW visible
19 Jun 5.9 20:37:06 10° ESE 20:39:30 13° E 20:41:54 10° ENE visible
19 Jun 4.0 22:16:47 19° SSW 22:20:37 90° NNW 22:25:54 10° NNE visible
19 Jun 6.4 23:59:55 10° W 00:03:20 17° NW 00:06:47 10° N visible
20 Jun 4.2 21:37:59 17° S 21:41:51 54° ESE 21:46:58 10° NNE visible
20 Jun 5.9 23:19:47 10° WSW 23:24:07 26° NW 23:28:29 10° N visible
21 Jun 4.8 20:59:04 12° SSE 21:03:12 32° E 21:07:50 10° NE visible
21 Jun 5.2 22:40:08 10° SW 22:45:02 40° WNW 22:49:58 10° N visible
22 Jun 5.4 20:21:02 10° SE 20:24:40 19° E 20:28:19 10° NE visible
22 Jun 4.4 22:00:54 10° SSW 22:06:04 64° WNW 22:11:18 10° NNE visible
22 Jun 6.7 23:46:40 10° WNW 23:49:07 13° NW 23:51:34 10° NNW visible
23 Jun 3.9 21:22:01 10° SSW 21:27:14 78° ESE 21:32:29 10° NNE visible
23 Jun 6.4 23:06:03 10° W 23:09:49 20° NW 23:13:36 10° N visible
24 Jun 4.3 20:43:32 10° S 20:48:30 46° ESE 20:53:30 10° NNE visible
24 Jun 5.8 22:26:06 10° WSW 22:30:38 29° NW 22:35:13 10° N visible
25 Jun 5.1 21:46:34 10° SW 21:51:35 46° WNW 21:56:38 10° NNE visible
